Previsão horária em Abeshe

Hoje, 9 Maio, Domingo

Tempo Temperatura Precipitação Vento Pressão Humidade
00:00 +31°C° 0 mm 2 m/s 711 mmHg 36%
01:00 +30°C° 0 mm 2 m/s 711 mmHg 37%
02:00 +30°C° 0 mm 2 m/s 711 mmHg 40%
03:00 +29°C° 0 mm 2 m/s 711 mmHg 43%
04:00 +29°C° 0 mm 2 m/s 711 mmHg 46%
05:00 +30°C° 0 mm 2 m/s 712 mmHg 47%
06:00 +30°C° 0 mm 2 m/s 712 mmHg 48%
07:00 +31°C° 0 mm 2 m/s 713 mmHg 48%
08:00 +34°C° 0 mm 3 m/s 713 mmHg 42%
09:00 +36°C° 0 mm 3 m/s 713 mmHg 35%
10:00 +38°C° 0 mm 3 m/s 713 mmHg 28%
11:00 +39°C° 0 mm 3 m/s 713 mmHg 23%
12:00 +40°C° 0 mm 3 m/s 712 mmHg 18%
13:00 +42°C° 0 mm 2 m/s 711 mmHg 13%
14:00 +43°C° 0 mm 3 m/s 711 mmHg 11%
15:00 +43°C° 0 mm 3 m/s 710 mmHg 10%
16:00 +44°C° 0 mm 3 m/s 710 mmHg 9%
17:00 +42°C° 0 mm 3 m/s 710 mmHg 10%
18:00 +39°C° 0 mm 3 m/s 710 mmHg 11%
19:00 +37°C° 0 mm 3 m/s 710 mmHg 12%
20:00 +36°C° 0 mm 2 m/s 710 mmHg 13%
21:00 +35°C° 0 mm 2 m/s 710 mmHg 13%
22:00 +34°C° 0 mm 2 m/s 710 mmHg 13%
23:00 +34°C° 0 mm 2 m/s 710 mmHg 14%

Amanhã, 10 Maio, Segunda-feira

Tempo Temperatura Precipitação Vento Pressão Humidade
00:00 +32°C° 0 mm 2 m/s 710 mmHg 14%
01:00 +32°C° 0 mm 2 m/s 710 mmHg 14%
02:00 +31°C° 0 mm 2 m/s 710 mmHg 18%
03:00 +30°C° 0 mm 2 m/s 710 mmHg 23%
04:00 +29°C° 0 mm 2 m/s 711 mmHg 27%
05:00 +30°C° 0 mm 4 m/s 711 mmHg 33%
06:00 +32°C° 0 mm 5 m/s 712 mmHg 38%
07:00 +32°C° 0 mm 6 m/s 713 mmHg 44%
08:00 +34°C° 0 mm 6 m/s 713 mmHg 39%
09:00 +36°C° 0 mm 5 m/s 713 mmHg 33%
10:00 +39°C° 0 mm 5 m/s 714 mmHg 28%
11:00 +40°C° 0 mm 4 m/s 713 mmHg 25%
12:00 +40°C° 0 mm 3 m/s 712 mmHg 22%
13:00 +41°C° 0 mm 2 m/s 712 mmHg 19%
14:00 +41°C° 0 mm 2 m/s 711 mmHg 17%
15:00 +42°C° 0 mm 2 m/s 710 mmHg 15%
16:00 +42°C° 0 mm 2 m/s 710 mmHg 14%
17:00 +40°C° 0 mm 2 m/s 710 mmHg 15%
18:00 +39°C° 0 mm 2 m/s 710 mmHg 17%
19:00 +37°C° 0 mm 2 m/s 710 mmHg 18%
20:00 +36°C° 0 mm 2 m/s 710 mmHg 22%
21:00 +35°C° 0 mm 3 m/s 711 mmHg 25%
22:00 +33°C° 0 mm 3 m/s 711 mmHg 29%
23:00 +33°C° 0 mm 3 m/s 711 mmHg 31%

Depois de amanhã, 11 Maio, Terça-feira

Tempo Temperatura Precipitação Vento Pressão Humidade
00:00 +31°C° 0 mm 2 m/s 710 mmHg 32%
01:00 +30°C° 0 mm 2 m/s 710 mmHg 34%
02:00 +30°C° 0 mm 2 m/s 710 mmHg 36%
03:00 +29°C° 0 mm 2 m/s 711 mmHg 39%
04:00 +29°C° 0 mm 2 m/s 711 mmHg 42%
05:00 +30°C° 0 mm 3 m/s 712 mmHg 41%
06:00 +31°C° 0 mm 3 m/s 712 mmHg 40%
07:00 +33°C° 0 mm 4 m/s 713 mmHg 40%
08:00 +35°C° 0 mm 4 m/s 713 mmHg 35%
09:00 +37°C° 0 mm 4 m/s 714 mmHg 31%
10:00 +40°C° 0 mm 4 m/s 714 mmHg 27%
11:00 +40°C° 0 mm 3 m/s 713 mmHg 23%
12:00 +41°C° 0 mm 2 m/s 713 mmHg 19%
13:00 +42°C° 0 mm 2 m/s 712 mmHg 16%
14:00 +42°C° 0 mm 2 m/s 711 mmHg 15%
15:00 +42°C° 0 mm 2 m/s 711 mmHg 13%
16:00 +42°C° 0 mm 2 m/s 710 mmHg 12%
17:00 +41°C° 0 mm 2 m/s 710 mmHg 14%
18:00 +39°C° 0 mm 2 m/s 710 mmHg 15%
19:00 +37°C° 0 mm 2 m/s 710 mmHg 17%
20:00 +36°C° 0 mm 2 m/s 710 mmHg 17%
21:00 +36°C° 0 mm 2 m/s 710 mmHg 17%
22:00 +35°C° 0 mm 2 m/s 711 mmHg 17%
23:00 +34°C° 0 mm 2 m/s 710 mmHg 18%

12 Maio, Quarta-feira

Tempo Temperatura Precipitação Vento Pressão Humidade
00:00 +32°C° 0 mm 2 m/s 710 mmHg 18%
01:00 +30°C° 0 mm 2 m/s 710 mmHg 19%
02:00 +30°C° 0 mm 2 m/s 710 mmHg 18%
03:00 +30°C° 0 mm 2 m/s 710 mmHg 17%
04:00 +29°C° 0 mm 3 m/s 711 mmHg 16%
05:00 +30°C° 0 mm 3 m/s 711 mmHg 20%
06:00 +32°C° 0 mm 4 m/s 712 mmHg 25%
07:00 +33°C° 0 mm 5 m/s 712 mmHg 29%
08:00 +36°C° 0 mm 4 m/s 713 mmHg 27%
09:00 +38°C° 0 mm 4 m/s 713 mmHg 25%
10:00 +41°C° 0 mm 4 m/s 713 mmHg 22%
11:00 +42°C° 0 mm 3 m/s 713 mmHg 19%
12:00 +43°C° 0 mm 3 m/s 712 mmHg 16%
13:00 +43°C° 0 mm 2 m/s 712 mmHg 13%
14:00 +43°C° 0 mm 2 m/s 711 mmHg 12%
15:00 +43°C° 0 mm 2 m/s 710 mmHg 11%
16:00 +43°C° 0 mm 1 m/s 710 mmHg 9%
17:00 +41°C° 0 mm 1 m/s 710 mmHg 10%
18:00 +39°C° 0 mm 2 m/s 710 mmHg 11%
19:00 +36°C° 0 mm 2 m/s 710 mmHg 12%
20:00 +36°C° 0 mm 2 m/s 710 mmHg 12%
21:00 +35°C° 0 mm 2 m/s 710 mmHg 12%
22:00 +34°C° 0 mm 3 m/s 710 mmHg 12%
23:00 +33°C° 0 mm 3 m/s 710 mmHg 16%

13 Maio, Quinta-feira

Tempo Temperatura Precipitação Vento Pressão Humidade
00:00 +33°C° 0 mm 3 m/s 710 mmHg 20%
01:00 +32°C° 0 mm 4 m/s 710 mmHg 24%
02:00 +31°C° 0 mm 3 m/s 710 mmHg 27%
03:00 +30°C° 0 mm 3 m/s 710 mmHg 29%
04:00 +29°C° 0 mm 3 m/s 710 mmHg 32%
05:00 +30°C° 0 mm 3 m/s 711 mmHg 30%
06:00 +33°C° 0 mm 4 m/s 711 mmHg 29%
07:00 +34°C° 0 mm 4 m/s 712 mmHg 27%
08:00 +36°C° 0 mm 4 m/s 712 mmHg 23%
09:00 +40°C° 0 mm 4 m/s 712 mmHg 19%
10:00 +42°C° 0 mm 3 m/s 712 mmHg 15%
11:00 +43°C° 0 mm 3 m/s 712 mmHg 13%
12:00 +43°C° 0 mm 2 m/s 711 mmHg 11%
13:00 +45°C° 0 mm 2 m/s 711 mmHg 9%
14:00 +45°C° 0 mm 2 m/s 710 mmHg 7%
15:00 +45°C° 0 mm 3 m/s 710 mmHg 6%
16:00 +45°C° 0 mm 3 m/s 709 mmHg 5%
17:00 +43°C° 0 mm 3 m/s 709 mmHg 6%
18:00 +39°C° 0 mm 3 m/s 709 mmHg 7%
19:00 +37°C° 0 mm 3 m/s 709 mmHg 8%
20:00 +36°C° 0 mm 2 m/s 709 mmHg 8%
21:00 +34°C° 0 mm 2 m/s 710 mmHg 9%
22:00 +32°C° 0 mm 2 m/s 710 mmHg 9%
23:00 +32°C° 0 mm 2 m/s 710 mmHg 9%

14 Maio, Sexta-feira

Tempo Temperatura Precipitação Vento Pressão Humidade
00:00 +31°C° 0 mm 2 m/s 710 mmHg 10%
01:00 +30°C° 0 mm 2 m/s 710 mmHg 10%
02:00 +30°C° 0 mm 3 m/s 710 mmHg 14%
03:00 +30°C° 0 mm 4 m/s 710 mmHg 18%
04:00 +29°C° 0 mm 5 m/s 711 mmHg 21%
05:00 +30°C° 0 mm 5 m/s 711 mmHg 24%
06:00 +32°C° 0 mm 5 m/s 712 mmHg 26%
07:00 +33°C° 0 mm 6 m/s 712 mmHg 29%
08:00 +36°C° 0 mm 6 m/s 713 mmHg 26%
09:00 +39°C° 0 mm 6 m/s 713 mmHg 24%
10:00 +41°C° 0 mm 7 m/s 713 mmHg 22%
11:00 +42°C° 0 mm 6 m/s 712 mmHg 19%
12:00 +43°C° 0 mm 5 m/s 712 mmHg 16%
13:00 +44°C° 0 mm 4 m/s 711 mmHg 13%
14:00 +44°C° 0 mm 3 m/s 710 mmHg 12%
15:00 +44°C° 0 mm 3 m/s 710 mmHg 12%
16:00 +43°C° 0 mm 2 m/s 709 mmHg 12%
17:00 +41°C° 0 mm 2 m/s 709 mmHg 14%
18:00 +39°C° 0 mm 2 m/s 709 mmHg 16%
19:00 +37°C° 0 mm 2 m/s 709 mmHg 18%
20:00 +36°C° 0 mm 2 m/s 709 mmHg 20%
21:00 +34°C° 0 mm 1 m/s 710 mmHg 22%
22:00 +32°C° 0 mm 1 m/s 710 mmHg 24%
23:00 +32°C° 0 mm 1 m/s 710 mmHg 21%
Mostrar mais

Necessitamos do seu Consentimento

A Meteoprog e os seus Fornecedores de Serviços podem armazenar e aceder a dados pessoais como cookies, identificadores do dispositivo ou outras tecnologias semelhantes existentes no seu dispositivo e processar estes dados para personalizar conteúdos e anúncios, assim como funcionalidades nas redes sociais e análise de tráfego.

  • Armazenar e/ou aceder a informações no seu dispositivo

    Os cookies, identificadores do dispositivo ou outras informações podem ser armazenados ou acedidos no seu dispositivo, para os fins acima indicados.

  • Anúncios e conteúdos personalizados, medição de anúncios e conteúdos, dados sobre o público-alvo e desenvolvimento de produtos

    Os anúncios e os conteúdos podem ser personalizados com base num perfil. Podem ser adicionados dados adicionais para uma maior personalização dos anúncios e dos conteúdos. A eficácia dos anúncios e dos conteúdos pode ser medida. Podem ser obtidas informações sobre o público que visualizou os anúncios e os conteúdos. Estes dados podem ser usados para desenvolver ou melhorar sistemas, softwares ou a experiência do utilizador.

Ao clicar em "Eu concordo”, permitirá o uso de cookies, identificadores do dispositivo e web beacons mencionados ou outras tecnologias semelhantes. As configurações do navegador do seu dispositivo podem ser alteradas.

Para certos fins, podem ser invocados interesses legítimos ao invés de consentimento. Pode ler mais informação sobre este assunto na nossa Política de Privacidade e Cookies.